Location: Bottenau
(48.5138°N, 8.0462°E)
Time: 16:53:59
(UTC+00:00)

CZ-2C R/B - Pass Details

Date: 18 April 2021
Orbit: 639 x 705 km, 98.3° (Epoch: 07 May)

Event Time Altitude Azimuth Distance (km) Brightness Sun altitude
Rises 19:41:35 0° 22° (NNE) 2,970 7.2 -12.4°
Reaches altitude 10° 19:44:00 10° 31° (NNE) 2,049 6.3 -12.8°
Maximum altitude 19:48:02 34° 97° (E) 1,068 4.3 -13.3°
Enters shadow 19:50:39 18° 151° (SSE) 1,546 5.1 -13.7°
